[Iaude] MPEC R171: 2023 RH6 [a=1.38,e=0.46,i=28.0,H=24.1]

mpec at marsden.cfa.harvard.edu mpec at marsden.cfa.harvard.edu
Wed Sep 13 07:33:45 EDT 2023


M.P.E.C. 2023-R171                           Issued 2023 September 13, 11:32 UT

     The Minor Planet Electronic Circulars contain information on unusual
         minor planets, routine data on comets and natural satellites,
         and occasional editorial announcements.  They are published
    on behalf of Division F of the International Astronomical Union by the
          Minor Planet Center, Smithsonian Astrophysical Observatory,
                          Cambridge, MA 02138, U.S.A.
			  
             Prepared using the Tamkin Foundation Computer Network

                              MPC at CFA.HARVARD.EDU
            URL https://www.minorplanetcenter.net/    ISSN 1523-6714

                                    2023 RH6                                    


Observations:
     K23R06H* C2023 09 11.46436822 36 41.730+16 03 41.90         19.86wXER171F51
     K23R06H  C2023 09 11.49172922 36 48.741+15 53 07.64         19.83wXER171F51
     K23R06H  C2023 09 11.50540522 36 52.268+15 47 51.01         19.92wXER171F51
     K23R06H  C2023 09 11.59753722 37 16.676+15 12 26.60         19.84GVER171F51
     K23R06H  C2023 09 11.59819222 37 16.868+15 12 11.64         20.40GVER171F51
     K23R06H 1C2023 09 11.78407 22 38 18.52 +14 01 28.7          20.1 VXER171033
     K23R06H 1C2023 09 11.78464 22 38 18.67 +14 01 15.9          20.0 VXER171033
     K23R06H 1C2023 09 11.78522 22 38 18.82 +14 01 03.2          20.1 VXER171033
     K23R06H 1C2023 09 11.80289822 38 23.440+13 54 32.40               VER171246
     K23R06H 1C2023 09 11.80318222 38 23.470+13 54 25.50               VER171246
     K23R06H 1C2023 09 11.80346722 38 23.530+13 54 19.10               VER171246
     K23R06H 1C2023 09 11.80432022 38 23.770+13 54 00.90               VER171246
     K23R06H 1C2023 09 11.80460422 38 23.860+13 53 52.90               VER171246
     K23R06H 1C2023 09 11.80587322 38 24.180+13 53 25.00               VER171246
     K23R06H KC2023 09 11.81533922 38 26.899+13 49 53.29         19.7 GVER171A17
     K23R06H KC2023 09 11.82635522 38 29.62 +13 45 53.2                XER171595
     K23R06H KC2023 09 11.82925722 38 30.478+13 44 43.26         19.8 GVER171A17
     K23R06H KC2023 09 11.82980422 38 30.51 +13 44 36.8          20.2 GXER171595
     K23R06H KC2023 09 11.83325722 38 31.38 +13 43 19.8          20.4 GXER171595
     K23R06H KC2023 09 11.83727922 38 32.38 +13 41 51.6          19.9 GVER171L01
     K23R06H KC2023 09 11.83876122 38 32.74 +13 41 18.7          19.7 GVER171L01
     K23R06H KC2023 09 11.84024322 38 33.12 +13 40 45.5          19.8 GVER171L01
     K23R06H KC2023 09 11.84172622 38 33.49 +13 40 12.8          19.9 GVER171L01
     K23R06H KC2023 09 11.84295122 38 33.958+13 39 39.31         19.7 GVER171A17
     K23R06H KC2023 09 11.84383122 38 34.30 +13 39 27.0          19.7 GVER171104
     K23R06H KC2023 09 11.84894522 38 35.56 +13 37 33.9          19.8 GVER171104
     K23R06H KC2023 09 11.86121722 38 38.62 +13 33 01.0          19.6 GVER171104
     K23R06H KC2023 09 11.89677922 38 47.454+13 19 53.97         19.3 GVER171K63
     K23R06H KC2023 09 11.90171822 38 48.612+13 18 04.32         19.8 GVER171K63
     K23R06H KC2023 09 11.90696522 38 49.902+13 16 08.01         19.8 GVER171K63
     K23R06H KC2023 09 12.01473 22 39 15.91 +12 36 37.7          19.6 GXER171K83
     K23R06H KC2023 09 12.01773 22 39 16.64 +12 35 32.6          19.4 GXER171K83
     K23R06H KC2023 09 12.02073 22 39 17.33 +12 34 26.5          19.6 GXER171K83
     K23R06H 1C2023 09 12.79664 22 42 38.71 +08 03 45.6          20.2 VXER171033
     K23R06H 1C2023 09 12.79705 22 42 38.79 +08 03 37.8          20.2 VXER171033
     K23R06H 1C2023 09 12.79745 22 42 38.90 +08 03 29.8          20.3 VXER171033
     K23R06H KC2023 09 13.11977822 43 53.68 +06 18 31.5          20.1 VuER171H21
     K23R06H KC2023 09 13.12257622 43 54.23 +06 17 37.8          20.3 VuER171H21
     K23R06H KC2023 09 13.12537522 43 54.80 +06 16 44.3          20.2 VuER171H21

Observer details:
033 Karl Schwarzschild Observatory, Tautenburg.  Observers S. Melnikov, C.
    Hoegner, F. Ludwig, M. Hartmann, B. Stecklum.  Measurer B. Stecklum.
    1.34-m f/3 Schmidt + CCD.
104 San Marcello Pistoiese.  Observers P. Bacci, M. Maestripieri.  Measurers
    P. Bacci, L. Tesi, G. Fagioli.  0.60-m F4 Reflector + CCD.
246 Klet Observatory-KLENOT.  Observers M. Tichy, J. Ticha, M. Janda, M.
    Honkova.  Measurer M. Tichy.  1.06-m f/2.7 Reflector + 2048x2048 CCD.
595 Farra d'Isonzo.  Observer E. Pettarin.  0.61-m f/4.5 reflector + CCD.
A17 Guidestar Observatory, Weinheim.  Observers M. Emmerich, S. Melchert.
    0.36-m f/6.0 Schmidt-Cassegrain + CCD.
F51 Pan-STARRS 1, Haleakala.  Observers J. Bulger, T. Lowe, P. Minguez, A.
    Schultz, I. Smith, K. Chambers.  Measurers K. Chambers, T. de Boer, J.
    Bulger, J. Fairlamb, H. Gao, M. Huber, C.-C. Lin, T. Lowe, E. Magnier, P.
    Minguez, Y. Ramanjooloo, A. Schultz, I. Smith, R. Wainscoat, R. Weryk, S.
    Chastel.  1.8-m Ritchey-Chretien + CCD.
H21 Astronomical Research Observatory, Westfield.  Observer R. Holmes.
    Measurers T. Linder, R. Holmes, L. Horn.  0.76-m f/3.0 astrograph + CCD.
K63 G. Pascoli Observatory, Castelvecchio Pascoli.  Observer R. Bacci.  0.41-m
    f/3.75 0.41m f/3.2  Newton + CCD.
K83 Beppe Forti Astronomical Observatory, Montelupo.  Observers M. Tombelli,
    A. Mazzanti, M. Lombardo, F. Cheli, G. Interrante, A. Squilloni, M. Iozzi.
    Measurers M. Tombelli, F. Bernardi.  0.40-m f/8 Ritchey-Chretien + CCD.
L01 Visnjan Observatory, Tican.  Observer K. Korlevic.  1.0-m f/2.9 reflector
    + CCD.

Orbital elements:
2023 RH6                                                 Earth MOID = 0.0461 AU
Epoch 2023 Sept. 13.0 TT = JDT 2460200.5                Veres                   
M  40.35082              (2000.0)            P               Q                  
n   0.60788565     Peri.   86.19910     -0.19478687     +0.97843568             
a   1.3801346      Node   171.57007     -0.97705489     -0.19971056             
e   0.4569230      Incl.   27.95138     +0.08614997     -0.05271918             
P   1.62           H   24.10          G   0.15           U   9                  
Residuals in seconds of arc
230911 F51  0.0   0.1-    230911 246  0.2-  0.8-    230911 104  0.2-  0.4-
230911 F51  0.0   0.1-    230911 A17  0.3+  0.3+    230911 K63  0.6+  0.2+
230911 F51  0.0   0.1-    230911 595  0.1-  0.3-    230911 K63  0.2-  0.3-
230911 F51  0.1-  0.1+    230911 A17  0.3+  0.1-    230911 K63  0.0   0.6-
230911 F51  0.1+  0.2+    230911 595  0.1+  0.0     230912 K83  0.2+  0.3-
230911 033  0.2+  0.2-    230911 595  0.1+  0.2-    230912 K83  0.2+  0.3+
230911 033  0.2+  0.3-    230911 L01  0.3-  0.1+    230912 K83  0.3-  0.1-
230911 033  0.2+  0.1-    230911 L01  0.5-  0.1+    230912 033  0.1-  0.4-
230911 246  0.2+  0.3+    230911 L01  0.4-  0.1-    230912 033  0.3-  0.0
230911 246  0.5-  0.2-    230911 L01  0.4-  0.1+    230912 033  0.0   0.0
230911 246  0.7-  0.3-    230911 A17  0.2+  0.3+    230913 H21  0.2+  0.0
230911 246  0.4-  0.5+    230911 104  0.0   0.2-    230913 H21  0.1-  0.1-
230911 246  0.1-  1.2-    230911 104  0.2-  0.2+    230913 H21  0.1-  0.1+

Ephemeris:
2023 RH6                 a,e,i = 1.38, 0.46, 28                  q = 0.7495
Date    TT    R. A. (2000) Decl.     Delta      r    Elong.  Phase     V
2023 08 14    12 07 19.8 +63 36 21   0.2838  0.8856    55.9   108.8    25.2
...
2023 08 29    15 29 11.1 +79 31 15   0.1398  0.9902    77.9    94.2    23.2
...
2023 09 06    21 50 02.7 +55 17 53   0.08659 1.0496   116.4    59.3    21.0
...
2023 09 12    22 39 13.9 +12 43 08   0.09301 1.0947   160.2    18.1    20.1
2023 09 13    22 43 23.4 +06 58 13   0.09870 1.1022   165.3    13.4    20.1
2023 09 14    22 46 59.9 +01 53 15   0.1054  1.1097   168.9    10.1    20.1
...
2023 09 20    23 01 34.7 -17 31 46   0.1581  1.1547   160.4    17.0    21.3
...
2023 09 28    23 12 24.3 -28 05 48   0.2448  1.2140   146.5    27.1    22.7
...
2023 10 13    23 25 42.3 -33 48 39   0.4266  1.3213   131.8    34.2    24.3

M. P. C. Staff               (C) Copyright 2023 MPC           M.P.E.C. 2023-R171





More information about the Iaude mailing list